Bar Harbor, ME

12:58 PM EDT on June 22, 2017 (GMT -0400)
Hancock County-Bar Harbor

Weather History for KBHB - March, 2013

Change the Weather History Date:

Monday, March 4, 2013

  Actual Average Record
Temperature  
Mean Temperature 34 °F -  
Max Temperature 37 °F 37 °F 53 °F (1974)
Min Temperature 32 °F 18 °F -10 °F (1982)
Degree Days  
Heating Degree Days 30    
Moisture  
Dew Point 33 °F    
Average Humidity 93    
Maximum Humidity 100    
Minimum Humidity 87    
Precipitation  
Precipitation 0.09 in - - ()
Sea Level Pressure  
Sea Level Pressure 29.47 in    
Wind  
Wind Speed 6 mph (NW)    
Max Wind Speed 12 mph    
Max Gust Speed 20 mph    
Visibility 6 miles    
Events      
Averages and records for this station are not official NWS values.
T = Trace of Precipitation, MM = Missing Value Source: NWS Daily Summary

Daily Weather History Graph

Daily Weather History Graph

Search for Another Location

Airport or City:

Trip Planner

Search our weather history database for the weather conditions in past years. The results will help you decide how hot, cold, wet, or windy it might be!

Date:

Astronomy

Mar. 04, 2013 Rise Set
Actual Time 6:05 AM EST 5:25 PM EST
Civil Twilight 5:36 AM EST 5:54 PM EST
Nautical Twilight 5:02 AM EST 6:28 PM EST
Astronomical Twilight 4:28 AM EST 7:02 PM EST
Moon 12:20 AM EST (3/4) 9:54 AM EST (3/4)
Length of Visible Light 12h 18m
Length of Day
11h 20m
Waning Gibbous, 52% of the Moon is Illuminated
Mar 4
Waning Gibbous
Mar 4
Last Quarter
Mar 11
New
Mar 19
First Quarter
Mar 27
Full

Hourly Weather History & Observations

Time (EST) Temp. Windchill Dew Point Humidity Pressure Visibility Wind Dir Wind Speed Gust Speed Precip Events Conditions
12:15 AM 35.6 °F 32.8 °F 33.8 °F 93% 29.45 in 10.0 mi West 3.5 mph - N/A   Overcast
12:35 AM 35.6 °F 31.7 °F 33.8 °F 93% 29.45 in 10.0 mi West 4.6 mph - N/A   Overcast
12:55 AM 35.6 °F 31.7 °F 33.8 °F 93% 29.45 in 10.0 mi West 4.6 mph - N/A   Overcast
1:15 AM 35.6 °F 31.7 °F 33.8 °F 93% 29.46 in 10.0 mi WNW 4.6 mph - N/A   Overcast
1:35 AM 35.6 °F 29.2 °F 33.8 °F 93% 29.45 in 10.0 mi WNW 8.1 mph - N/A   Overcast
1:55 AM 35.6 °F 30.7 °F 33.8 °F 93% 29.45 in 10.0 mi WNW 5.8 mph - N/A   Overcast
2:15 AM 35.6 °F 30.7 °F 33.8 °F 93% 29.45 in 10.0 mi WNW 5.8 mph - N/A   Overcast
2:35 AM 35.6 °F 30.7 °F 32.0 °F 87% 29.45 in 10.0 mi WNW 5.8 mph - N/A   Overcast
2:55 AM 35.6 °F 29.9 °F 32.0 °F 87% 29.44 in 10.0 mi WNW 6.9 mph - N/A   Overcast
3:15 AM 33.8 °F 27.7 °F 32.0 °F 93% 29.44 in 10.0 mi NW 6.9 mph - N/A   Overcast
3:35 AM 33.8 °F 26.4 °F 32.0 °F 93% 29.44 in 10.0 mi WNW 9.2 mph - N/A   Overcast
3:55 AM 33.8 °F 30.8 °F 32.0 °F 93% 29.44 in 10.0 mi WNW 3.5 mph - N/A   Overcast
4:15 AM 33.8 °F 27.7 °F 32.0 °F 93% 29.44 in 10.0 mi WNW 6.9 mph - N/A   Overcast
4:35 AM 33.8 °F 27.0 °F 32.0 °F 93% 29.44 in 10.0 mi NW 8.1 mph - N/A   Overcast
4:55 AM 33.8 °F 27.7 °F 32.0 °F 93% 29.44 in 5.0 mi WNW 6.9 mph - N/A   Overcast
5:15 AM 33.8 °F 27.7 °F 32.0 °F 93% 29.44 in 4.0 mi WNW 6.9 mph - N/A   Overcast
5:35 AM 33.8 °F 28.6 °F 30.2 °F 87% 29.44 in 4.0 mi NW 5.8 mph - N/A   Overcast
5:55 AM 32.0 °F 27.5 °F 30.2 °F 93% 29.44 in 5.0 mi NW 4.6 mph - N/A   Overcast
6:15 AM 32.0 °F 24.8 °F 30.2 °F 93% 29.44 in 7.0 mi NW 8.1 mph - N/A   Mostly Cloudy
6:35 AM 32.0 °F 25.6 °F 30.2 °F 93% 29.44 in 10.0 mi NW 6.9 mph - N/A   Mostly Cloudy
7:15 AM 32.0 °F 25.6 °F 30.2 °F 93% 29.45 in 9.0 mi NW 6.9 mph - N/A   Overcast
7:35 AM 33.8 °F 27.7 °F 30.2 °F 87% 29.44 in 9.0 mi WNW 6.9 mph - N/A   Overcast
7:55 AM 33.8 °F 27.7 °F 30.2 °F 87% 29.44 in 10.0 mi NW 6.9 mph - N/A   Overcast
8:15 AM 33.8 °F 29.6 °F 30.2 °F 87% 29.44 in 10.0 mi NW 4.6 mph - N/A   Overcast
8:35 AM 33.8 °F 27.7 °F 30.2 °F 87% 29.44 in 3.0 mi NW 6.9 mph - N/A   Overcast
8:55 AM 33.8 °F 27.7 °F 30.2 °F 87% 29.44 in 2.5 mi WNW 6.9 mph - N/A   Overcast
9:15 AM 33.8 °F 28.6 °F 30.2 °F 87% 29.44 in 1.5 mi WNW 5.8 mph - N/A   Overcast
9:35 AM 33.8 °F 28.6 °F 30.2 °F 87% 29.43 in 1.5 mi NW 5.8 mph - N/A   Overcast
9:55 AM 33.8 °F 27.7 °F 30.2 °F 87% 29.43 in 1.0 mi WNW 6.9 mph - N/A   Overcast
10:15 AM 33.8 °F 27.7 °F 30.2 °F 87% 29.43 in 1.2 mi WNW 6.9 mph - N/A   Overcast
10:35 AM 33.8 °F 27.0 °F 32.0 °F 93% 29.43 in 1.5 mi WNW 8.1 mph - N/A   Overcast
10:55 AM 33.8 °F 27.0 °F 32.0 °F 93% 29.42 in 1.2 mi WNW 8.1 mph 17.3 mph 0.01 in   Overcast
11:15 AM 35.6 °F 28.6 °F 33.8 °F 93% 29.42 in 2.0 mi NW 9.2 mph - N/A   Overcast
11:35 AM 35.6 °F 29.9 °F 33.8 °F 93% 29.42 in 5.0 mi NW 6.9 mph - N/A   Overcast
11:55 AM 35.6 °F 28.0 °F 32.0 °F 87% 29.42 in 3.0 mi NW 10.4 mph 17.3 mph N/A   Overcast
12:15 PM 33.8 °F 27.0 °F 32.0 °F 93% 29.41 in 1.5 mi NW 8.1 mph - N/A   Overcast
12:35 PM 33.8 °F 28.6 °F 32.0 °F 93% 29.41 in 2.0 mi NW 5.8 mph 18.4 mph N/A   Overcast
12:55 PM 33.8 °F 26.4 °F 33.8 °F 100% 29.41 in 1.5 mi NW 9.2 mph 16.1 mph N/A   Overcast
1:15 PM 33.8 °F 26.4 °F 33.8 °F 100% 29.41 in 2.0 mi NW 9.2 mph - N/A   Overcast
1:55 PM 33.8 °F 29.6 °F 33.8 °F 100% 29.41 in 1.8 mi WNW 4.6 mph - 0.01 in   Overcast
2:15 PM 33.8 °F 27.7 °F 33.8 °F 100% 29.41 in 1.8 mi NW 6.9 mph - N/A   Overcast
2:35 PM 33.8 °F 28.6 °F 33.8 °F 100% 29.42 in 2.5 mi WNW 5.8 mph - N/A   Overcast
2:55 PM 35.6 °F 29.9 °F 35.6 °F 100% 29.42 in 10.0 mi NNW 6.9 mph - N/A   Overcast
3:15 PM 35.6 °F 29.2 °F 35.6 °F 100% 29.43 in 10.0 mi North 8.1 mph - N/A   Overcast
3:35 PM 35.6 °F 29.9 °F 33.8 °F 93% 29.43 in 9.0 mi North 6.9 mph - N/A   Overcast
3:55 PM 37.4 °F 33.8 °F 35.6 °F 93% 29.44 in 10.0 mi North 4.6 mph - N/A   Overcast
4:15 PM 35.6 °F 30.7 °F 33.8 °F 93% 29.44 in 4.0 mi North 5.8 mph - 0.02 in   Overcast
4:35 PM 35.6 °F 29.2 °F 33.8 °F 93% 29.45 in 10.0 mi North 8.1 mph - 0.02 in   Overcast
4:55 PM 35.6 °F 31.7 °F 33.8 °F 93% 29.46 in 9.0 mi North 4.6 mph - 0.02 in   Overcast
5:15 PM 35.6 °F 30.7 °F 33.8 °F 93% 29.47 in 7.0 mi NNW 5.8 mph - 0.01 in   Overcast
5:35 PM 35.6 °F 29.9 °F 33.8 °F 93% 29.47 in 4.0 mi NNW 6.9 mph - 0.01 in   Overcast
5:56 PM 33.8 °F 27.0 °F 33.8 °F 100% 29.48 in 5.0 mi North 8.1 mph - N/A   Overcast
6:15 PM 33.8 °F 27.7 °F 33.8 °F 100% 29.49 in 5.0 mi North 6.9 mph - N/A   Overcast
6:35 PM 33.8 °F 27.0 °F 33.8 °F 100% 29.50 in 4.0 mi North 8.1 mph - N/A   Overcast
6:55 PM 33.8 °F 27.7 °F 33.8 °F 100% 29.50 in 2.0 mi North 6.9 mph - N/A   Overcast
7:15 PM 33.8 °F 27.0 °F 33.8 °F 100% 29.51 in 2.0 mi North 8.1 mph - N/A   Overcast
7:35 PM 33.8 °F 27.7 °F 33.8 °F 100% 29.52 in 1.5 mi North 6.9 mph - N/A   Overcast
7:55 PM 33.8 °F 27.0 °F 33.8 °F 100% 29.53 in 2.5 mi North 8.1 mph - 0.03 in   Overcast
8:15 PM 33.8 °F 25.8 °F 33.8 °F 100% 29.54 in 3.0 mi North 10.4 mph - N/A   Overcast
8:35 PM 33.8 °F 26.4 °F 32.0 °F 93% 29.55 in 5.0 mi North 9.2 mph - N/A   Overcast
9:35 PM 33.8 °F 25.3 °F 32.0 °F 93% 29.57 in 10.0 mi North 11.5 mph - N/A   Overcast
9:55 PM 33.8 °F 25.3 °F 32.0 °F 93% 29.58 in 5.0 mi North 11.5 mph 17.3 mph N/A   Overcast
10:15 PM 33.8 °F 25.8 °F 32.0 °F 93% 29.59 in 9.0 mi North 10.4 mph 19.6 mph N/A   Overcast
10:35 PM 33.8 °F 26.4 °F 32.0 °F 93% 29.59 in 5.0 mi North 9.2 mph - N/A   Overcast
10:55 PM 33.8 °F 25.8 °F 32.0 °F 93% 29.60 in 5.0 mi North 10.4 mph - 0.01 in   Overcast
11:15 PM 33.8 °F 26.4 °F 32.0 °F 93% 29.61 in 10.0 mi North 9.2 mph - N/A   Overcast
11:35 PM 33.8 °F 25.8 °F 32.0 °F 93% 29.62 in 7.0 mi North 10.4 mph - N/A   Overcast
11:55 PM 33.8 °F 25.8 °F 32.0 °F 93% 29.63 in 5.0 mi North 10.4 mph - N/A   Overcast